QPF
0.00 0.00 0.00 0.00 0.00 0.00 0.00 0.00 0.00 0.00 0.00 0.00 0.00 0.00 0.00 0.00 0.00 0.00 0.00 0.00 0.00 0.00 0.00 0.00 0.00 0.00 0.00 0.00 0.00 0.01 0.02 0.03 0.04 0.04 0.04 0.05 0.06 0.06 0.08 0.09 0.10 0.12 0.13
0.00 0.00 0.00 0.00 0.00 0.00 0.00 0.00 0.00 0.00 0.00 0.00 0.00 0.00 0.00 0.00 0.00 0.00 0.00 0.00 0.00 0.00 0.00 0.00 0.00 0.00 0.00 0.00 0.00 0.00 0.00 0.01 0.01 0.02 0.02 0.02 0.03 0.04 0.05 0.06 0.06 0.06 0.06
0.00 0.00 0.00 0.00 0.00 0.00 0.00 0.00 0.00 0.00 0.00 0.00 0.00 0.00 0.00 0.00 0.00 0.00 0.00 0.00 0.00 0.00 0.00 0.00 0.00 0.00 0.00 0.00 0.00 0.00 0.00 0.00 0.01 0.01 0.01 0.02 0.02 0.02 0.03 0.03 0.03 0.03 0.03
0.00 0.00 0.00 0.00 0.00 0.00 0.00 0.00 0.00 0.00 0.00 0.00 0.00 0.00 0.00 0.00 0.00 0.00 0.00 0.00 0.00 0.00 0.00 0.00 0.00 0.00 0.00 0.00 0.00 0.00 0.00 0.00 0.00 0.01 0.01 0.01 0.01 0.02 0.02 0.02 0.02 0.02 0.02
0.00 0.00 0.00 0.00 0.00 0.00 0.00 0.00 0.00 0.00 0.00 0.00 0.00 0.00 0.00 0.00 0.00 0.00 0.00 0.00 0.00 0.00 0.00 0.00 0.00 0.00 0.00 0.00 0.00 0.00 0.00 0.00 0.00 0.00 0.01 0.01 0.01 0.01 0.01 0.01 0.01 0.01 0.01
0.00 0.00 0.00 0.00 0.00 0.00 0.00 0.00 0.00 0.00 0.00 0.00 0.00 0.00 0.00 0.00 0.00 0.00 0.00 0.00 0.00 0.00 0.00 0.00 0.00 0.00 0.00 0.00 0.00 0.00 0.00 0.00 0.00 0.00 0.00 0.00 0.00 0.01 0.01 0.01 0.01 0.01 0.01
0.00 0.00 0.00 0.00 0.00 0.00 0.00 0.00 0.00 0.00 0.00 0.00 0.00 0.00 0.00 0.00 0.00 0.00 0.00 0.00 0.00 0.00 0.00 0.00 0.00 0.00 0.00 0.00 0.00 0.00 0.00 0.00 0.00 0.00 0.00 0.00 0.00 0.00 0.00 0.01 0.01 0.01 0.00
0.00 0.00 0.00 0.00 0.00 0.00 0.00 0.00 0.00 0.00 0.00 0.00 0.00 0.00 0.00 0.00 0.00 0.00 0.00 0.00 0.00 0.00 0.00 0.00 0.00 0.00 0.00 0.00 0.00 0.00 0.00 0.00 0.00 0.00 0.00 0.00 0.00 0.00 0.00 0.00 0.00 0.00 0.00
0.00 0.00 0.00 0.00 0.00 0.00 0.00 0.00 0.00 0.00 0.00 0.00 0.00 0.00 0.00 0.00 0.00 0.00 0.00 0.00 0.00 0.00 0.00 0.00 0.00 0.00 0.00 0.00 0.00 0.00 0.00 0.00 0.00 0.00 0.00 0.00 0.00 0.00 0.00 0.00 0.00 0.00 0.00
0.00 0.00 0.00 0.00 0.00 0.00 0.00 0.00 0.00 0.00 0.00 0.00 0.00 0.00 0.00 0.00 0.00 0.00 0.00 0.00 0.00 0.00 0.00 0.00 0.00 0.00 0.00 0.00 0.00 0.00 0.00 0.00 0.00 0.00 0.00 0.00 0.00 0.00 0.00 0.00 0.00 0.00 0.00
0.00 0.00 0.00 0.00 0.00 0.00 0.00 0.00 0.00 0.00 0.00 0.00 0.00 0.00 0.00 0.00 0.00 0.00 0.00 0.00 0.00 0.00 0.00 0.00 0.00 0.00 0.00 0.00 0.00 0.00 0.00 0.00 0.00 0.00 0.00 0.00 0.00 0.00 0.00 0.00 0.00 0.00 0.00
0.00 0.00 0.00 0.00 0.00 0.00 0.00 0.00 0.00 0.00 0.00 0.00 0.00 0.00 0.00 0.00 0.00 0.00 0.00 0.00 0.00 0.00 0.00 0.00 0.00 0.00 0.00 0.00 0.00 0.00 0.00 0.00 0.00 0.00 0.00 0.00 0.00 0.00 0.00 0.00 0.00 0.00 0.00
0.00 0.00 0.00 0.00 0.00 0.00 0.00 0.00 0.00 0.00 0.00 0.00 0.00 0.00 0.00 0.00 0.00 0.00 0.00 0.00 0.00 0.00 0.00 0.00 0.00 0.00 0.00 0.00 0.00 0.00 0.00 0.00 0.00 0.00 0.00 0.00 0.00 0.00 0.00 0.00 0.00 0.00 0.00
0.00 0.00 0.00 0.00 0.00 0.00 0.00 0.00 0.00 0.00 0.00 0.00 0.00 0.00 0.00 0.00 0.00 0.00 0.00 0.00 0.00 0.00 0.00 0.00 0.00 0.00 0.00 0.00 0.00 0.00 0.00 0.00 0.00 0.00 0.00 0.00 0.00 0.00 0.00 0.00 0.00 0.00 0.00
0.00 0.00 0.00 0.00 0.00 0.00 0.00 0.00 0.00 0.00 0.00 0.00 0.00 0.00 0.00 0.00 0.00 0.00 0.00 0.00 0.00 0.00 0.00 0.00 0.00 0.00 0.00 0.00 0.00 0.00 0.00 0.00 0.00 0.00 0.00 0.00 0.00 0.00 0.00 0.00 0.00 0.00 0.00
0.00 0.00 0.00 0.00 0.00 0.00 0.00 0.00 0.00 0.00 0.00 0.00 0.00 0.00 0.00 0.00 0.00 0.00 0.00 0.00 0.00 0.00 0.00 0.00 0.00 0.00 0.00 0.00 0.00 0.00 0.00 0.00 0.00 0.00 0.00 0.00 0.00 0.00 0.00 0.00 0.00 0.00 0.00
0.00 0.00 0.00 0.00 0.00 0.00 0.00 0.00 0.00 0.00 0.00 0.00 0.00 0.00 0.00 0.00 0.00 0.00 0.00 0.00 0.00 0.00 0.00 0.00 0.00 0.00 0.00 0.00 0.00 0.00 0.00 0.00 0.00 0.00 0.00 0.00 0.00 0.00 0.00 0.00 0.00 0.00 0.00
0.01 0.00 0.00 0.00 0.00 0.00 0.01 0.01 0.00 0.00 0.00 0.00 0.00 0.00 0.00 0.00 0.00 0.00 0.00 0.00 0.00 0.00 0.00 0.00 0.00 0.00 0.00 0.00 0.00 0.00 0.00 0.00 0.00 0.00 0.00 0.00 0.00 0.00 0.00 0.00 0.00 0.00 0.00
0.01 0.01 0.01 0.01 0.01 0.01 0.01 0.01 0.01 0.00 0.00 0.00 0.00 0.00 0.00 0.00 0.00 0.00 0.00 0.00 0.00 0.00 0.00 0.00 0.00 0.00 0.00 0.00 0.00 0.00 0.00 0.00 0.00 0.00 0.00 0.00 0.00 0.00 0.00 0.00 0.00 0.00 0.01
0.02 0.02 0.02 0.01 0.01 0.01 0.01 0.01 0.01 0.01 0.00 0.00 0.00 0.00 0.00 0.00 0.00 0.00 0.00 0.00 0.00 0.00 0.00 0.00 0.00 0.00 0.00 0.00 0.00 0.00 0.00 0.00 0.00 0.00 0.00 0.00 0.00 0.00 0.01 0.01 0.01 0.01 0.01
0.02 0.03 0.04 0.03 0.02 0.01 0.01 0.01 0.01 0.01 0.01 0.00 0.00 0.00 0.00 0.00 0.00 0.00 0.00 0.00 0.00 0.00 0.00 0.00 0.00 0.00 0.00 0.00 0.00 0.00 0.00 0.00 0.00 0.00 0.00 0.00 0.00 0.01 0.01 0.01 0.01 0.01 0.01
0.02 0.03 0.03 0.03 0.03 0.03 0.02 0.02 0.02 0.01 0.01 0.01 0.00 0.00 0.00 0.00 0.00 0.00 0.00 0.00 0.00 0.00 0.00 0.00 0.00 0.00 0.00 0.00 0.00 0.00 0.00 0.00 0.00 0.00 0.00 0.00 0.01 0.01 0.01 0.01 0.01 0.01 0.01
0.03 0.03 0.03 0.03 0.03 0.03 0.03 0.03 0.02 0.01 0.01 0.01 0.01 0.00 0.00 0.00 0.00 0.00 0.00 0.00 0.00 0.00 0.00 0.00 0.00 0.00 0.00 0.00 0.00 0.00 0.00 0.00 0.00 0.01 0.01 0.01 0.01 0.01 0.01 0.01 0.01 0.01 0.01
0.02 0.02 0.03 0.03 0.03 0.03 0.03 0.03 0.03 0.02 0.02 0.01 0.01 0.01 0.00 0.00 0.00 0.00 0.00 0.00 0.00 0.00 0.00 0.00 0.00 0.00 0.00 0.00 0.00 0.00 0.00 0.00 0.01 0.01 0.01 0.01 0.01 0.01 0.01 0.01 0.01 0.01 0.01
0.01 0.02 0.03 0.03 0.03 0.04 0.04 0.04 0.04 0.03 0.03 0.02 0.02 0.01 0.01 0.00 0.00 0.00 0.00 0.00 0.00 0.00 0.00 0.00 0.00 0.00 0.00 0.00 0.00 0.00 0.00 0.00 0.01 0.02 0.03 0.04 0.03 0.02 0.02 0.02 0.02 0.01 0.01
0.02 0.02 0.03 0.03 0.04 0.04 0.04 0.04 0.04 0.04 0.03 0.03 0.02 0.01 0.01 0.00 0.00 0.00 0.00 0.00 0.00 0.00 0.00 0.00 0.00 0.00 0.00 0.00 0.00 0.00 0.00 0.00 0.01 0.01 0.04 0.06 0.04 0.03 0.02 0.03 0.03 0.03 0.03
MSLP
1019.98 1020.12 1020.27 1020.43 1020.59 1020.73 1020.84 1020.91 1020.94 1020.92 1020.86 1020.75 1020.61 1020.45 1020.27 1020.10 1019.94 1019.80 1019.67 1019.57 1019.47 1019.37 1019.26 1019.13 1018.97 1018.81 1018.65 1018.51 1018.42 1018.38 1018.41 1018.51 1018.65 1018.82 1018.99 1019.14 1019.24 1019.29 1019.30 1019.30 1019.30 1019.33 1019.43
1020.25 1020.38 1020.52 1020.67 1020.81 1020.93 1021.04 1021.11 1021.15 1021.15 1021.10 1021.02 1020.92 1020.80 1020.67 1020.55 1020.45 1020.38 1020.32 1020.28 1020.23 1020.17 1020.08 1019.96 1019.80 1019.61 1019.42 1019.24 1019.10 1019.02 1019.01 1019.06 1019.17 1019.30 1019.44 1019.56 1019.64 1019.68 1019.68 1019.67 1019.66 1019.69 1019.77
1020.46 1020.60 1020.73 1020.86 1020.98 1021.08 1021.17 1021.23 1021.27 1021.28 1021.26 1021.21 1021.14 1021.06 1020.99 1020.93 1020.90 1020.88 1020.89 1020.91 1020.92 1020.91 1020.86 1020.76 1020.62 1020.44 1020.24 1020.04 1019.88 1019.77 1019.73 1019.75 1019.82 1019.92 1020.03 1020.13 1020.19 1020.22 1020.21 1020.19 1020.17 1020.19 1020.25
1020.59 1020.75 1020.88 1020.99 1021.08 1021.17 1021.23 1021.29 1021.33 1021.35 1021.35 1021.34 1021.32 1021.29 1021.27 1021.27 1021.29 1021.33 1021.40 1021.47 1021.53 1021.57 1021.56 1021.49 1021.38 1021.21 1021.02 1020.84 1020.67 1020.55 1020.49 1020.48 1020.53 1020.60 1020.69 1020.77 1020.82 1020.84 1020.83 1020.80 1020.78 1020.79 1020.82
1020.63 1020.81 1020.94 1021.04 1021.12 1021.19 1021.25 1021.31 1021.36 1021.41 1021.45 1021.48 1021.50 1021.53 1021.56 1021.60 1021.67 1021.76 1021.86 1021.97 1022.06 1022.13 1022.15 1022.11 1022.02 1021.89 1021.72 1021.54 1021.38 1021.26 1021.19 1021.18 1021.21 1021.27 1021.34 1021.40 1021.45 1021.46 1021.46 1021.44 1021.42 1021.41 1021.43
1020.58 1020.78 1020.92 1021.02 1021.09 1021.16 1021.23 1021.31 1021.40 1021.49 1021.58 1021.67 1021.75 1021.82 1021.90 1021.98 1022.07 1022.18 1022.29 1022.41 1022.52 1022.59 1022.63 1022.61 1022.54 1022.42 1022.27 1022.11 1021.97 1021.85 1021.78 1021.76 1021.78 1021.82 1021.89 1021.95 1021.99 1022.02 1022.02 1022.01 1022.00 1021.99 1021.98
1020.46 1020.68 1020.82 1020.93 1021.03 1021.12 1021.22 1021.35 1021.49 1021.64 1021.79 1021.94 1022.07 1022.19 1022.30 1022.40 1022.50 1022.60 1022.71 1022.81 1022.90 1022.96 1022.99 1022.97 1022.90 1022.80 1022.66 1022.52 1022.38 1022.27 1022.20 1022.17 1022.19 1022.23 1022.29 1022.36 1022.41 1022.45 1022.47 1022.48 1022.47 1022.46 1022.45
1020.30 1020.53 1020.69 1020.83 1020.95 1021.09 1021.24 1021.43 1021.64 1021.86 1022.08 1022.29 1022.46 1022.61 1022.73 1022.83 1022.92 1023.00 1023.07 1023.13 1023.19 1023.22 1023.23 1023.20 1023.13 1023.03 1022.90 1022.76 1022.63 1022.53 1022.46 1022.43 1022.44 1022.48 1022.54 1022.61 1022.68 1022.73 1022.77 1022.80 1022.81 1022.80 1022.78
1020.13 1020.37 1020.56 1020.72 1020.89 1021.09 1021.31 1021.57 1021.85 1022.14 1022.41 1022.67 1022.88 1023.04 1023.15 1023.23 1023.28 1023.32 1023.34 1023.36 1023.37 1023.37 1023.35 1023.30 1023.23 1023.13 1023.01 1022.88 1022.76 1022.66 1022.59 1022.56 1022.57 1022.61 1022.67 1022.74 1022.82 1022.88 1022.94 1022.98 1023.00 1023.00 1022.98
1019.96 1020.21 1020.43 1020.64 1020.87 1021.12 1021.42 1021.74 1022.09 1022.43 1022.75 1023.02 1023.24 1023.39 1023.48 1023.52 1023.52 1023.51 1023.48 1023.45 1023.43 1023.40 1023.36 1023.31 1023.24 1023.14 1023.04 1022.92 1022.82 1022.73 1022.66 1022.63 1022.64 1022.67 1022.73 1022.81 1022.88 1022.95 1023.01 1023.05 1023.08 1023.09 1023.06
1019.78 1020.06 1020.31 1020.58 1020.86 1021.18 1021.54 1021.92 1022.31 1022.68 1023.01 1023.28 1023.48 1023.60 1023.65 1023.64 1023.59 1023.53 1023.46 1023.40 1023.35 1023.31 1023.28 1023.24 1023.18 1023.12 1023.03 1022.94 1022.86 1022.78 1022.73 1022.71 1022.71 1022.74 1022.79 1022.86 1022.93 1022.99 1023.04 1023.07 1023.09 1023.09 1023.05
1019.58 1019.89 1020.19 1020.50 1020.85 1021.22 1021.63 1022.05 1022.45 1022.83 1023.15 1023.39 1023.55 1023.62 1023.61 1023.56 1023.47 1023.37 1023.28 1023.21 1023.16 1023.14 1023.13 1023.12 1023.11 1023.08 1023.04 1022.99 1022.93 1022.88 1022.84 1022.83 1022.83 1022.86 1022.90 1022.95 1022.99 1023.03 1023.06 1023.07 1023.06 1023.03 1022.97
1019.31 1019.66 1020.01 1020.38 1020.78 1021.20 1021.64 1022.07 1022.47 1022.83 1023.11 1023.30 1023.41 1023.43 1023.38 1023.28 1023.16 1023.05 1022.96 1022.91 1022.89 1022.91 1022.94 1022.99 1023.03 1023.06 1023.07 1023.06 1023.05 1023.02 1023.01 1023.00 1023.01 1023.03 1023.05 1023.08 1023.10 1023.10 1023.09 1023.05 1023.00 1022.93 1022.83
1018.95 1019.34 1019.75 1020.17 1020.61 1021.06 1021.51 1021.94 1022.32 1022.64 1022.87 1023.02 1023.07 1023.04 1022.95 1022.84 1022.72 1022.62 1022.56 1022.54 1022.58 1022.66 1022.76 1022.87 1022.97 1023.06 1023.13 1023.17 1023.19 1023.20 1023.20 1023.21 1023.22 1023.23 1023.24 1023.24 1023.22 1023.18 1023.12 1023.03 1022.92 1022.78 1022.64
1018.46 1018.90 1019.35 1019.82 1020.29 1020.76 1021.21 1021.62 1021.98 1022.25 1022.44 1022.54 1022.55 1022.50 1022.40 1022.29 1022.19 1022.13 1022.12 1022.17 1022.27 1022.41 1022.58 1022.76 1022.92 1023.06 1023.18 1023.26 1023.31 1023.34 1023.37 1023.38 1023.39 1023.40 1023.39 1023.37 1023.32 1023.24 1023.12 1022.97 1022.79 1022.60 1022.38
1017.85 1018.33 1018.81 1019.31 1019.80 1020.28 1020.72 1021.11 1021.44 1021.68 1021.84 1021.91 1021.90 1021.85 1021.77 1021.70 1021.65 1021.65 1021.70 1021.82 1021.99 1022.20 1022.42 1022.65 1022.85 1023.03 1023.17 1023.28 1023.35 1023.40 1023.43 1023.45 1023.47 1023.47 1023.45 1023.40 1023.32 1023.20 1023.04 1022.84 1022.60 1022.33 1022.05
1017.17 1017.65 1018.15 1018.66 1019.15 1019.62 1020.05 1020.43 1020.73 1020.96 1021.10 1021.17 1021.18 1021.16 1021.12 1021.10 1021.12 1021.19 1021.32 1021.50 1021.73 1021.99 1022.25 1022.50 1022.73 1022.92 1023.07 1023.17 1023.25 1023.30 1023.34 1023.36 1023.38 1023.37 1023.35 1023.29 1023.19 1023.04 1022.84 1022.59 1022.30 1021.98 1021.64
1016.46 1016.93 1017.41 1017.91 1018.39 1018.85 1019.26 1019.62 1019.91 1020.13 1020.28 1020.38 1020.43 1020.46 1020.49 1020.54 1020.63 1020.77 1020.97 1021.20 1021.47 1021.76 1022.03 1022.29 1022.51 1022.68 1022.81 1022.91 1022.97 1023.02 1023.05 1023.07 1023.08 1023.08 1023.05 1022.99 1022.88 1022.71 1022.49 1022.21 1021.88 1021.52 1021.14
1015.78 1016.21 1016.66 1017.12 1017.57 1018.00 1018.39 1018.73 1019.02 1019.25 1019.43 1019.57 1019.67 1019.77 1019.87 1020.00 1020.17 1020.37 1020.62 1020.89 1021.18 1021.47 1021.73 1021.96 1022.15 1022.30 1022.40 1022.46 1022.50 1022.53 1022.55 1022.57 1022.58 1022.58 1022.55 1022.49 1022.37 1022.20 1021.97 1021.67 1021.33 1020.94 1020.52
1015.19 1015.55 1015.94 1016.34 1016.75 1017.14 1017.51 1017.84 1018.13 1018.38 1018.59 1018.77 1018.94 1019.10 1019.28 1019.48 1019.71 1019.96 1020.24 1020.53 1020.82 1021.08 1021.32 1021.51 1021.66 1021.76 1021.82 1021.85 1021.86 1021.86 1021.87 1021.88 1021.89 1021.89 1021.86 1021.80 1021.68 1021.51 1021.28 1020.97 1020.62 1020.22 1019.79
1014.72 1015.00 1015.32 1015.65 1016.00 1016.35 1016.69 1017.00 1017.29 1017.55 1017.80 1018.02 1018.25 1018.47 1018.70 1018.96 1019.23 1019.51 1019.80 1020.09 1020.36 1020.59 1020.79 1020.93 1021.03 1021.08 1021.10 1021.09 1021.08 1021.06 1021.05 1021.05 1021.05 1021.04 1021.02 1020.95 1020.83 1020.66 1020.42 1020.12 1019.76 1019.36 1018.93
1014.39 1014.58 1014.81 1015.08 1015.36 1015.66 1015.96 1016.25 1016.54 1016.81 1017.08 1017.34 1017.60 1017.86 1018.14 1018.42 1018.72 1019.01 1019.30 1019.57 1019.81 1020.00 1020.15 1020.25 1020.30 1020.31 1020.29 1020.25 1020.21 1020.17 1020.15 1020.13 1020.12 1020.09 1020.05 1019.97 1019.84 1019.66 1019.41 1019.11 1018.75 1018.35 1017.92
1014.18 1014.29 1014.44 1014.63 1014.85 1015.10 1015.36 1015.63 1015.90 1016.17 1016.45 1016.72 1017.00 1017.29 1017.58 1017.88 1018.18 1018.47 1018.74 1018.98 1019.18 1019.34 1019.45 1019.50 1019.51 1019.49 1019.44 1019.37 1019.31 1019.25 1019.20 1019.16 1019.12 1019.06 1018.99 1018.89 1018.73 1018.52 1018.26 1017.94 1017.57 1017.16 1016.73
1014.05 1014.09 1014.18 1014.31 1014.47 1014.67 1014.89 1015.12 1015.37 1015.63 1015.90 1016.18 1016.46 1016.75 1017.05 1017.34 1017.63 1017.90 1018.15 1018.36 1018.53 1018.64 1018.71 1018.73 1018.71 1018.66 1018.58 1018.49 1018.40 1018.31 1018.23 1018.15 1018.07 1017.98 1017.86 1017.71 1017.51 1017.26 1016.96 1016.61 1016.22 1015.80 1015.36
1013.98 1013.97 1014.00 1014.08 1014.19 1014.34 1014.52 1014.73 1014.95 1015.19 1015.44 1015.71 1015.98 1016.26 1016.55 1016.82 1017.09 1017.34 1017.56 1017.74 1017.87 1017.96 1018.00 1017.99 1017.94 1017.86 1017.75 1017.64 1017.51 1017.38 1017.26 1017.13 1016.99 1016.84 1016.66 1016.45 1016.19 1015.89 1015.54 1015.15 1014.72 1014.27 1013.80
1013.94 1013.88 1013.88 1013.91 1013.98 1014.10 1014.24 1014.41 1014.60 1014.82 1015.05 1015.30 1015.55 1015.82 1016.08 1016.34 1016.59 1016.81 1017.00 1017.15 1017.26 1017.32 1017.33 1017.29 1017.21 1017.10 1016.96 1016.80 1016.63 1016.45 1016.26 1016.07 1015.86 1015.63 1015.38 1015.09 1014.76 1014.39 1013.98 1013.54 1013.07 1012.57 1012.07
Thickness
5568 5569 5570 5571 5573 5574 5575 5575 5576 5577 5577 5577 5577 5577 5576 5575 5575 5574 5572 5570 5568 5564 5561 5558 5554 5550 5547 5543 5540 5536 5532 5529 5526 5515 5505 5499 5494 5488 5483 5478 5474 5470 5466
5557 5558 5559 5559 5560 5561 5562 5563 5564 5564 5564 5564 5564 5563 5562 5561 5560 5559 5557 5555 5552 5549 5545 5543 5539 5536 5532 5529 5525 5521 5517 5514 5511 5505 5496 5489 5484 5479 5474 5470 5465 5461 5457
5546 5546 5547 5548 5549 5549 5550 5551 5551 5551 5551 5551 5551 5550 5548 5547 5546 5544 5543 5540 5537 5534 5531 5529 5525 5522 5518 5514 5511 5508 5504 5502 5498 5493 5485 5479 5474 5470 5466 5461 5457 5452 5450
5536 5536 5536 5537 5537 5538 5539 5539 5539 5539 5539 5538 5538 5537 5535 5534 5533 5531 5529 5526 5523 5521 5518 5515 5512 5509 5505 5502 5499 5495 5492 5488 5485 5480 5475 5470 5465 5461 5457 5452 5448 5444 5441
5526 5526 5526 5527 5527 5528 5528 5528 5527 5527 5527 5527 5526 5525 5524 5523 5521 5518 5516 5514 5511 5508 5505 5502 5500 5498 5496 5492 5488 5483 5480 5476 5473 5469 5465 5460 5455 5451 5447 5443 5438 5434 5432
5517 5517 5517 5517 5517 5517 5517 5516 5516 5516 5515 5515 5514 5514 5513 5512 5510 5507 5504 5501 5498 5495 5492 5489 5487 5484 5482 5481 5478 5474 5471 5467 5462 5457 5452 5448 5443 5439 5435 5432 5428 5424 5422
5508 5508 5508 5508 5508 5507 5507 5506 5505 5504 5504 5503 5502 5501 5501 5500 5498 5495 5492 5488 5485 5482 5479 5477 5475 5472 5469 5466 5464 5462 5459 5457 5453 5447 5441 5436 5432 5429 5425 5421 5417 5413 5410
5500 5500 5500 5499 5499 5498 5497 5496 5495 5494 5493 5491 5490 5490 5489 5489 5487 5484 5481 5477 5474 5471 5469 5466 5463 5461 5460 5456 5453 5450 5446 5443 5440 5436 5432 5427 5424 5420 5416 5412 5407 5403 5400
5493 5493 5493 5492 5491 5490 5489 5487 5486 5484 5482 5481 5480 5478 5478 5477 5477 5474 5471 5467 5464 5462 5460 5457 5455 5452 5452 5449 5444 5439 5436 5432 5430 5426 5423 5419 5415 5412 5408 5402 5396 5391 5387
5488 5487 5486 5485 5484 5482 5481 5479 5477 5476 5473 5472 5470 5469 5468 5467 5468 5467 5463 5459 5456 5454 5451 5448 5447 5445 5444 5440 5434 5430 5426 5422 5419 5415 5412 5408 5404 5401 5397 5392 5386 5377 5372
5482 5480 5479 5478 5476 5475 5473 5472 5470 5468 5465 5464 5462 5461 5460 5459 5459 5459 5456 5451 5449 5446 5443 5439 5437 5437 5435 5432 5427 5422 5418 5414 5409 5405 5400 5397 5393 5389 5384 5379 5374 5367 5359
5476 5474 5473 5471 5470 5469 5467 5464 5462 5460 5458 5456 5454 5453 5452 5452 5452 5451 5450 5446 5443 5439 5435 5432 5429 5428 5426 5423 5418 5415 5411 5405 5399 5395 5390 5386 5381 5376 5372 5367 5361 5356 5350
5471 5469 5467 5465 5464 5462 5460 5458 5455 5453 5451 5449 5447 5446 5446 5446 5444 5444 5442 5440 5437 5432 5428 5426 5423 5420 5417 5412 5409 5406 5400 5394 5390 5384 5380 5374 5369 5364 5359 5354 5349 5344 5338
5467 5464 5462 5460 5458 5456 5455 5453 5450 5448 5445 5444 5442 5441 5440 5439 5437 5436 5433 5431 5429 5425 5421 5418 5415 5411 5407 5403 5399 5394 5389 5384 5380 5375 5370 5365 5360 5354 5348 5342 5336 5330 5324
5463 5460 5458 5456 5454 5451 5449 5448 5446 5445 5442 5441 5440 5438 5435 5433 5433 5432 5427 5425 5421 5417 5414 5409 5405 5400 5396 5392 5388 5384 5379 5375 5369 5365 5359 5354 5349 5343 5337 5331 5324 5317 5311
5460 5457 5454 5451 5449 5446 5444 5442 5443 5441 5441 5440 5437 5434 5432 5431 5429 5427 5424 5420 5417 5413 5407 5400 5396 5391 5387 5383 5378 5374 5370 5365 5360 5354 5348 5342 5337 5330 5324 5319 5313 5306 5300
5459 5455 5452 5449 5446 5442 5439 5438 5437 5436 5436 5435 5433 5431 5428 5425 5423 5420 5417 5414 5410 5406 5398 5392 5387 5382 5378 5374 5369 5364 5359 5355 5350 5344 5338 5332 5325 5319 5313 5307 5302 5296 5290
5455 5453 5449 5446 5443 5440 5437 5434 5432 5430 5428 5427 5426 5426 5423 5420 5417 5414 5410 5406 5400 5396 5390 5385 5380 5375 5371 5366 5361 5356 5352 5347 5341 5335 5329 5323 5316 5309 5303 5298 5292 5286 5281
5451 5448 5446 5442 5439 5436 5433 5430 5427 5425 5423 5421 5418 5416 5416 5414 5411 5407 5403 5397 5391 5387 5382 5378 5373 5368 5364 5359 5354 5349 5343 5338 5333 5326 5320 5314 5308 5301 5295 5290 5285 5280 5276
5446 5445 5441 5438 5434 5431 5428 5425 5423 5420 5418 5415 5413 5411 5407 5404 5401 5398 5394 5389 5385 5380 5376 5371 5367 5362 5357 5352 5347 5341 5335 5330 5325 5319 5313 5307 5301 5294 5288 5283 5278 5273 5269
5440 5439 5436 5433 5430 5428 5425 5422 5420 5416 5414 5411 5409 5406 5402 5398 5395 5391 5387 5383 5379 5374 5370 5365 5360 5355 5351 5345 5340 5334 5329 5324 5318 5313 5307 5300 5294 5288 5283 5278 5273 5269 5264
5433 5431 5429 5427 5425 5422 5420 5418 5415 5412 5409 5406 5403 5399 5398 5394 5389 5385 5381 5378 5373 5369 5364 5359 5354 5349 5345 5340 5334 5328 5323 5318 5313 5307 5301 5294 5288 5283 5278 5273 5268 5264 5260
5424 5423 5421 5420 5418 5416 5415 5411 5409 5406 5403 5400 5397 5393 5390 5387 5383 5379 5376 5372 5367 5363 5358 5353 5348 5344 5339 5334 5329 5324 5318 5314 5309 5302 5296 5290 5284 5278 5273 5269 5264 5260 5256
5416 5415 5414 5412 5410 5408 5407 5405 5402 5400 5397 5393 5390 5387 5383 5380 5377 5374 5370 5366 5361 5357 5352 5347 5343 5339 5334 5329 5324 5320 5315 5310 5304 5297 5291 5285 5280 5275 5270 5266 5262 5259 5255
5407 5406 5405 5404 5403 5401 5400 5398 5395 5392 5390 5387 5384 5381 5377 5374 5370 5367 5363 5359 5355 5350 5346 5342 5338 5333 5329 5325 5320 5316 5311 5305 5300 5294 5289 5283 5279 5274 5269 5265 5262 5258 5255
5399 5399 5398 5397 5395 5394 5392 5390 5388 5385 5382 5380 5377 5374 5371 5367 5364 5361 5357 5353 5348 5344 5340 5337 5333 5329 5325 5320 5316 5311 5306 5302 5297 5292 5287 5283 5279 5275 5270 5267 5263 5260 5257